{"data":{"norad_id":49460,"intl_designator":"2021-104BE","name":"STARLINK-3140","alt_names":[],"object_type":"PAYLOAD","status":"ACTIVE","operator":null,"country":"US","launch_date":"2021-11-13","launch_site_code":"AFETR","launch_vehicle":null,"mission":null,"orbit_class":"UNKNOWN","rcs_meters":null,"size_class":null,"mass_kg":null,"dimensions":null,"purposes":["comms"],"wikipedia_slug":null,"has_3d_model":false,"image_url":null,"decayed_at":null,"tle_current":{"epoch":"2026-09-20T01:54:22.962816Z","epoch_age_seconds":68592,"freshness":"FRESH","line1":"1 49460U 21104BE  26263.07943244  .00000444  00000+0  24294-4 0  9999","line2":"2 49460  53.1606  53.3408 0001264  73.7877 286.3265 15.34383483268292","mean_motion":15.34383483,"eccentricity":0.0001264,"inclination_deg":53.1606,"raan_deg":53.3408,"arg_perigee_deg":73.7877,"mean_anomaly_deg":286.3265,"bstar":2.4294e-5,"rev_number":26829,"period_min":93.848768313416,"perigee_km":461.88764424064,"apogee_km":463.61702106393,"semimajor_km":6840.8893326523,"source":"CELESTRAK","updated_at":"2026-09-20T09:00:39.402726Z"}}}